Gale Warning
click here for details
SBYC BurgeeSandy Bay Yacht Club
Weather Center


NOAA NWS Hourly Roundups by Site

NOAA NWS Hourly Roundups by Site

Regional Weather Roundup for Boston, MA

To Select Another Site Choose from List
Select Site:  

000
ASUS41 KBOX 220600
RWRBOX

REGIONAL WEATHER ROUNDUP
NATIONAL WEATHER SERVICE BOSTON/NORTON MA
200 AM EDT FRI MAR 22 2019

NOTE:  "FAIR" INDICATES FEW OR NO CLOUDS BELOW 12,000 FEET WITH NO
SIGNIFICANT WEATHER AND/OR OBSTRUCTIONS TO VISIBILITY.

MAZALL-220700-
EASTERN MASSACHUSETTS

CITY           SKY/WX    TMP DP  RH WIND       PRES   REMARKS
BOSTON         LGT RAIN  41  37  86 NE20      29.73F WCI  32
6HR MIN TEMP:  40; 6HR MAX TEMP:  42; 6HR PCP:  0.05;

BEVERLY        LGT RAIN  40  35  83 NE12      29.75F
LAWRENCE       LGT RAIN  39  35  86 NE10      29.79F
BEDFORD        NOT AVBL
BLUE HILL        N/A     37  37 100 E16G26    29.68F WCI  28
NORWOOD        LGT RAIN  42  37  82 NE8       29.72F
MARSHFIELD     NOT AVBL
PLYMOUTH       CLOUDY    40  38  93 NE13      29.68F
TAUNTON        CLOUDY    42  39  89 NE8       29.67F
NEW BEDFORD    CLOUDY    42  42 100 NE8       29.65F
$$

MAZALL-220700-
CAPE COD AND THE ISLANDS

CITY           SKY/WX    TMP DP  RH WIND       PRES   REMARKS
FALMOUTH       CLOUDY    45  41  87 E12G18    29.64F
HYANNIS        NOT AVBL
CHATHAM        MOCLDY    42  39  89 E15G22    29.68F
PROVINCETOWN   FAIR      41  39  93 E17G24    29.70F
NANTUCKET      MOCLDY    43  40  89 E18G29    29.61F
MARTHAS VNYRD  CLOUDY   N/A N/A N/A E15       29.62F
$$

MAZALL-220700-
CENTRAL AND WESTERN MASSACHUSETTS

CITY           SKY/WX    TMP DP  RH WIND       PRES   REMARKS
WORCESTER      RAIN      35  34  96 NE9G17    29.69F FOG     WCI  28
6HR MIN TEMP:  35; 6HR MAX TEMP:  41; 6HR PCP:  0.06;

FITCHBURG      LGT RAIN  37  34  89 NE6       29.74F
ORANGE         LGT RAIN  38  34  85 NE6       29.71F
SPRINGFIELD    LGT RAIN  39  36  87 N10       29.66F
WESTFIELD      RAIN      38  35  89 N10       29.66F FOG     WCI  31
NORTH ADAMS    CLOUDY    40  33  76 E15G23    29.66F WCI  32
PITTSFIELD     LGT RAIN  38  32  79 NE10      29.61F WCI  31
$$

RIZALL-220700-
RHODE ISLAND

CITY           SKY/WX    TMP DP  RH WIND       PRES   REMARKS
PROVIDENCE     LGT RAIN  41  39  93 NE8       29.67F
6HR MIN TEMP:  40; 6HR MAX TEMP:  43; 6HR PCP:  0.15;

NEWPORT        CLOUDY    43  42  97 E15G23    29.62F
BLOCK ISLAND   LGT RAIN  42  41  96 NE14G22   29.60F FOG
SMITHFIELD     LGT RAIN  39  38  96 NE13      29.66F WCI  31
WESTERLY       RAIN      47  45  93 NE13G24   29.60F FOG
$$

CTZALL-220700-
CONNECTICUT

CITY           SKY/WX    TMP DP  RH WIND       PRES   REMARKS
BRADLEY INTL   RAIN      41  38  89 N13       29.64F FOG
6HR MIN TEMP:  41; 6HR MAX TEMP:  46; 6HR PCP:  0.15;

HARTFORD       LGT RAIN  42  39  89 N10       29.62F FOG
BRIDGEPORT     RAIN      45  42  89 NE20G28   29.50F
DANBURY        RAIN      41  38  89 NE10      29.55F
GROTON         RAIN      45  45 100 NE13      29.59F FOG
NEW HAVEN      LGT RAIN  47  43  86 NE15      29.51F
CHESTER        HVY RAIN  43  41  93 NE16G23   29.55F
MERIDEN        RAIN      42  39  89 N9        29.58F FOG
WILLIMANTIC    LGT RAIN  41  38  89 NE10      29.63F
OXFORD         RAIN      40  39  97 NE16      29.56F WCI  31
$$

MEZ002-015-021-024-NHZ003-005-008-011-012-014-VTZ005-008-220700-
NORTHERN NEW ENGLAND

CITY           SKY/WX    TMP DP  RH WIND       PRES   REMARKS
PORTLAND ME    MOCLDY    38  35  89 NE10      29.84F WCI  31
6HR MIN TEMP:  37; 6HR MAX TEMP:  40;

BANGOR ME      CLOUDY    34  31  88 E6        29.91F WCI  29
CONCORD NH     CLOUDY    37  34  89 NE5       29.79F
MANCHESTER NH  CLOUDY    39  33  79 E9        29.78F
NASHUA NH      LGT RAIN  39  37  92 NE6       29.78F
PORTSMOUTH NH  CLOUDY    39  34  81 NE7       29.80F
JAFFREY NH     LGT RAIN  35  35 100 N3        29.73F
KEENE NH       NOT AVBL
BURLINGTON VT  MOCLDY    36  34  92 CALM      29.74F
MT. WASHINGTON NOT AVBL
$$

NYZ052-076-220700-
EASTERN NEW YORK

CITY           SKY/WX    TMP DP  RH WIND       PRES   REMARKS
ALBANY         LGT RAIN  38  34  85 N6        29.67F
6HR MIN TEMP:  38; 6HR MAX TEMP:  41; 6HR PCP: TRACE;

NEW YORK CITY  HVY RAIN  42  39  89 NE29G40   29.46F FOG     WCI  31
6HR MIN TEMP:  40; 6HR MAX TEMP:  42; 6HR PCP:  0.49;

$$

ANZALL-220700-
MARINE OBSERVATIONS

STATION/POSITION TIME  TEMP    WIND        PRES    VSBY  WAVE
                       AIR SEA DIR/SP/G                  HT/PER
                 (UTC) (F)     (DEG/KT/KT) (MB)    (MI)  (FT/S)
BOSTON BUOY      0450   40 39   70/ 14/ 16 1008.3          3/ 6
BUZZARDS BAY     0500           70/ 22/ 24 1005.0F
NANTUCKET SOUND  0540   41 39   80/ 21/ 25 1003.6F
MASS BAY-STELLWA 0504   39 38   90/ 16/ 19 1007.4F  1 7/8  4/ 6
ISLE OF SHOALS   0500   39      70/ 18/ 20 1009.2F
S OF BLOCK IS    0530      42                N/A           7/ 7
$$

......................KEY.........................
  SKY/WX - SKY CONDITION/PRESENT WEATHER
  TMP    - TEMPERATURE IN FAHRENHEIT
  DWPT   - DEWPOINT IN FAHRENHEIT
  RH     - RELATIVE HUMIDITY IN PERCENT
  WIND   - DIRECTION AND SPEED IN MPH
  PRES   - MEAN SEA LEVEL PRESSURE IN INCHES OF HG
  WCI    - WIND CHILL INDEX
  VSB    - VISIBILITY IN MILES
  HX     - HEAT INDEX
  TC     - TEMPERATURE IN CELSIUS
  VRB    - VARIABLE WIND DIRECTION
  N/A    - NOT AVAILABLE



 

View Past Reports for Boston, MA.

Products Courtesy of NOAA-NWS
NWS Information Parsing Script by Ken True at Saratoga Weather - Script by SE Lincoln Weather.

 



home

Copyright © Sandy Bay Yacht Club. All rights reserved.